owner,sensor,date,latitude,longitude,vertical_datum,sea_water_practical_salinity,qcFlag 
LUMCON,ioos:station:LUMCON:102:1,2016-08-03T13:15:00Z,29.1870,-90.6093,1.65,17.82,1111122 
LUMCON,ioos:station:LUMCON:102:1,2016-08-03T13:45:00Z,29.1870,-90.6093,1.67,18.11,1111122 
LUMCON,ioos:station:LUMCON:102:1,2016-08-08T16:00:00Z,29.1870,-90.6093,1.45,20.21,1111122 
LUMCON,ioos:station:LUMCON:102:1,2016-08-09T16:00:00Z,29.1870,-90.6093,1.38,22.45,1111122 
LUMCON,ioos:station:LUMCON:102:1,2016-08-10T12:30:00Z,29.1870,-90.6093,1.46,27.75,1111122 
LUMCON,ioos:station:LUMCON:102:1,2016-08-10T14:00:00Z,29.1870,-90.6093,1.38,27.78,1111122 
LUMCON,ioos:station:LUMCON:102:1,2016-08-10T16:45:00Z,29.1870,-90.6093,1.23,27.48,1111122 
LUMCON,ioos:station:LUMCON:102:1,2016-08-10T18:00:00Z,29.1870,-90.6093,1.25,27.02,1111122 
LUMCON,ioos:station:LUMCON:102:1,2016-08-10T18:15:00Z,29.1870,-90.6093,1.25,26.12,1111122 
LUMCON,ioos:station:LUMCON:102:1,2016-08-10T20:15:00Z,29.1870,-90.6093,1.15,22.82,1111122 
LUMCON,ioos:station:LUMCON:102:1,2016-08-10T21:15:00Z,29.1870,-90.6093,1.14,23.14,1111122 
LUMCON,ioos:station:LUMCON:102:1,2016-08-11T18:00:00Z,29.1870,-90.6093,1.19,22.03,1111122 
LUMCON,ioos:station:LUMCON:102:1,2016-08-11T18:15:00Z,29.1870,-90.6093,1.19,21.97,1111122 
LUMCON,ioos:station:LUMCON:102:1,2016-08-12T13:30:00Z,29.1870,-90.6093,1.41,18.9,1111122 
LUMCON,ioos:station:LUMCON:102:1,2016-08-12T13:45:00Z,29.1870,-90.6093,1.41,18.9,1111122 
LUMCON,ioos:station:LUMCON:102:1,2016-08-12T14:00:00Z,29.1870,-90.6093,1.4,18.81,1111122 
LUMCON,ioos:station:LUMCON:102:1,2016-08-15T15:30:00Z,29.1870,-90.6093,1.58,21.88,1111122 
LUMCON,ioos:station:LUMCON:102:1,2016-08-16T14:30:00Z,29.1870,-90.6093,1.65,19.48,1111122 
LUMCON,ioos:station:LUMCON:102:1,2016-08-16T14:45:00Z,29.1870,-90.6093,1.66,19.64,1111122 
LUMCON,ioos:station:LUMCON:102:1,2016-08-17T15:15:00Z,29.1870,-90.6093,1.6,17.19,1111122 
LUMCON,ioos:station:LUMCON:102:1,2016-08-19T20:45:00Z,29.1870,-90.6093,1.56,17.26,1111122 
LUMCON,ioos:station:LUMCON:102:1,2016-08-19T21:00:00Z,29.1870,-90.6093,1.55,17.31,1111122 
LUMCON,ioos:station:LUMCON:102:1,2016-08-19T21:15:00Z,29.1870,-90.6093,1.54,17.4,1111122 
LUMCON,ioos:station:LUMCON:102:1,2016-08-19T21:30:00Z,29.1870,-90.6093,1.53,17.54,1111122 
LUMCON,ioos:station:LUMCON:102:1,2016-08-19T21:45:00Z,29.1870,-90.6093,1.52,17.59,1111122 
LUMCON,ioos:station:LUMCON:102:1,2016-08-19T22:00:00Z,29.1870,-90.6093,1.51,17.69,1111122 
LUMCON,ioos:station:LUMCON:102:1,2016-08-19T22:15:00Z,29.1870,-90.6093,1.5,17.79,1111122 
LUMCON,ioos:station:LUMCON:102:1,2016-08-19T22:30:00Z,29.1870,-90.6093,1.48,17.82,1111122 
LUMCON,ioos:station:LUMCON:102:1,2016-08-19T22:45:00Z,29.1870,-90.6093,1.46,17.82,1111122 
LUMCON,ioos:station:LUMCON:102:1,2016-08-19T23:00:00Z,29.1870,-90.6093,1.45,17.82,1111122 
LUMCON,ioos:station:LUMCON:102:1,2016-08-19T23:15:00Z,29.1870,-90.6093,1.44,17.8,1111122 
LUMCON,ioos:station:LUMCON:102:1,2016-08-19T23:30:00Z,29.1870,-90.6093,1.42,17.78,1111122 
LUMCON,ioos:station:LUMCON:102:1,2016-08-19T23:45:00Z,29.1870,-90.6093,1.41,17.87,1111122 
LUMCON,ioos:station:LUMCON:102:1,2016-08-20T00:00:00Z,29.1870,-90.6093,1.4,17.84,1111122 
LUMCON,ioos:station:LUMCON:102:1,2016-08-20T00:15:00Z,29.1870,-90.6093,1.39,17.83,1111122 
LUMCON,ioos:station:LUMCON:102:1,2016-08-20T00:30:00Z,29.1870,-90.6093,1.38,17.82,1111122 
LUMCON,ioos:station:LUMCON:102:1,2016-08-20T00:45:00Z,29.1870,-90.6093,1.37,17.82,1111122 
LUMCON,ioos:station:LUMCON:102:1,2016-08-20T01:00:00Z,29.1870,-90.6093,1.36,17.81,1111122 
LUMCON,ioos:station:LUMCON:102:1,2016-08-20T01:15:00Z,29.1870,-90.6093,1.35,17.8,1111122 
LUMCON,ioos:station:LUMCON:102:1,2016-08-20T01:30:00Z,29.1870,-90.6093,1.34,17.76,1111122 
LUMCON,ioos:station:LUMCON:102:1,2016-08-20T01:45:00Z,29.1870,-90.6093,1.34,17.74,1111122 
LUMCON,ioos:station:LUMCON:102:1,2016-08-20T02:00:00Z,29.1870,-90.6093,1.33,17.71,1111122 
LUMCON,ioos:station:LUMCON:102:1,2016-08-20T02:15:00Z,29.1870,-90.6093,1.33,17.7,1111122 
LUMCON,ioos:station:LUMCON:102:1,2016-08-20T02:30:00Z,29.1870,-90.6093,1.31,17.69,1111122 
LUMCON,ioos:station:LUMCON:102:1,2016-08-20T02:45:00Z,29.1870,-90.6093,1.32,17.69,1111122 
LUMCON,ioos:station:LUMCON:102:1,2016-08-20T03:00:00Z,29.1870,-90.6093,1.32,17.69,1111122 
LUMCON,ioos:station:LUMCON:102:1,2016-08-20T03:15:00Z,29.1870,-90.6093,1.31,17.71,1111122 
LUMCON,ioos:station:LUMCON:102:1,2016-08-20T03:30:00Z,29.1870,-90.6093,1.32,17.74,1111122 
LUMCON,ioos:station:LUMCON:102:1,2016-08-20T03:45:00Z,29.1870,-90.6093,1.33,17.77,1111122 
LUMCON,ioos:station:LUMCON:102:1,2016-08-20T04:00:00Z,29.1870,-90.6093,1.33,17.8,1111122 
LUMCON,ioos:station:LUMCON:102:1,2016-08-20T04:15:00Z,29.1870,-90.6093,1.34,17.83,1111122 
LUMCON,ioos:station:LUMCON:102:1,2016-08-20T04:30:00Z,29.1870,-90.6093,1.35,17.81,1111122 
LUMCON,ioos:station:LUMCON:102:1,2016-08-20T04:45:00Z,29.1870,-90.6093,1.35,17.77,1111122 
LUMCON,ioos:station:LUMCON:102:1,2016-08-20T05:00:00Z,29.1870,-90.6093,1.36,17.67,1111122 
LUMCON,ioos:station:LUMCON:102:1,2016-08-20T05:15:00Z,29.1870,-90.6093,1.37,17.64,1111122 
LUMCON,ioos:station:LUMCON:102:1,2016-08-20T05:30:00Z,29.1870,-90.6093,1.37,17.63,1111122 
LUMCON,ioos:station:LUMCON:102:1,2016-08-20T05:45:00Z,29.1870,-90.6093,1.39,17.65,1111122 
LUMCON,ioos:station:LUMCON:102:1,2016-08-20T06:00:00Z,29.1870,-90.6093,1.4,17.67,1111122 
LUMCON,ioos:station:LUMCON:102:1,2016-08-20T06:15:00Z,29.1870,-90.6093,1.41,17.73,1111122 
LUMCON,ioos:station:LUMCON:102:1,2016-08-20T06:30:00Z,29.1870,-90.6093,1.42,17.78,1111122 
LUMCON,ioos:station:LUMCON:102:1,2016-08-20T06:45:00Z,29.1870,-90.6093,1.42,17.83,1111122 
LUMCON,ioos:station:LUMCON:102:1,2016-08-20T07:00:00Z,29.1870,-90.6093,1.43,17.86,1111122 
LUMCON,ioos:station:LUMCON:102:1,2016-08-20T07:15:00Z,29.1870,-90.6093,1.43,17.9,1111122 
LUMCON,ioos:station:LUMCON:102:1,2016-08-20T07:30:00Z,29.1870,-90.6093,1.45,17.93,1111122 
LUMCON,ioos:station:LUMCON:102:1,2016-08-20T07:45:00Z,29.1870,-90.6093,1.45,17.98,1111122 
LUMCON,ioos:station:LUMCON:102:1,2016-08-20T08:00:00Z,29.1870,-90.6093,1.48,18.06,1111122 
LUMCON,ioos:station:LUMCON:102:1,2016-08-20T08:15:00Z,29.1870,-90.6093,1.47,18.11,1111122 
LUMCON,ioos:station:LUMCON:102:1,2016-08-20T08:30:00Z,29.1870,-90.6093,1.47,18.16,1111122 
LUMCON,ioos:station:LUMCON:102:1,2016-08-20T08:45:00Z,29.1870,-90.6093,1.48,18.2,1111122 
LUMCON,ioos:station:LUMCON:102:1,2016-08-20T09:00:00Z,29.1870,-90.6093,1.49,18.06,1111122 
LUMCON,ioos:station:LUMCON:102:1,2016-08-20T09:15:00Z,29.1870,-90.6093,1.49,17.68,1111122 
LUMCON,ioos:station:LUMCON:102:1,2016-08-20T09:30:00Z,29.1870,-90.6093,1.49,17.3,1111122 
LUMCON,ioos:station:LUMCON:102:1,2016-08-20T09:45:00Z,29.1870,-90.6093,1.49,17.07,1111122 
LUMCON,ioos:station:LUMCON:102:1,2016-08-20T10:00:00Z,29.1870,-90.6093,1.5,16.95,1111122 
LUMCON,ioos:station:LUMCON:102:1,2016-08-20T10:15:00Z,29.1870,-90.6093,1.5,16.82,1111122 
LUMCON,ioos:station:LUMCON:102:1,2016-08-20T10:30:00Z,29.1870,-90.6093,1.5,16.92,1111122 
LUMCON,ioos:station:LUMCON:102:1,2016-08-20T10:45:00Z,29.1870,-90.6093,1.5,16.81,1111122 
LUMCON,ioos:station:LUMCON:102:1,2016-08-20T11:00:00Z,29.1870,-90.6093,1.5,16.9,1111122 
LUMCON,ioos:station:LUMCON:102:1,2016-08-20T11:15:00Z,29.1870,-90.6093,1.5,16.74,1111122 
LUMCON,ioos:station:LUMCON:102:1,2016-08-20T11:30:00Z,29.1870,-90.6093,1.51,16.74,1111122 
LUMCON,ioos:station:LUMCON:102:1,2016-08-20T11:45:00Z,29.1870,-90.6093,1.5,16.83,1111122 
LUMCON,ioos:station:LUMCON:102:1,2016-08-20T12:00:00Z,29.1870,-90.6093,1.51,16.95,1111122 
LUMCON,ioos:station:LUMCON:102:1,2016-08-20T12:15:00Z,29.1870,-90.6093,1.51,17.1,1111122 
LUMCON,ioos:station:LUMCON:102:1,2016-08-20T12:30:00Z,29.1870,-90.6093,1.52,17.27,1111122 
LUMCON,ioos:station:LUMCON:102:1,2016-08-20T12:45:00Z,29.1870,-90.6093,1.52,17.35,1111122 
LUMCON,ioos:station:LUMCON:102:1,2016-08-20T13:00:00Z,29.1870,-90.6093,1.52,17.37,1111122 
LUMCON,ioos:station:LUMCON:102:1,2016-08-20T13:15:00Z,29.1870,-90.6093,1.52,17.43,1111122 
LUMCON,ioos:station:LUMCON:102:1,2016-08-20T13:30:00Z,29.1870,-90.6093,1.53,17.52,1111122 
LUMCON,ioos:station:LUMCON:102:1,2016-08-20T13:45:00Z,29.1870,-90.6093,1.53,17.62,1111122 
LUMCON,ioos:station:LUMCON:102:1,2016-08-20T14:00:00Z,29.1870,-90.6093,1.53,17.69,1111122 
LUMCON,ioos:station:LUMCON:102:1,2016-08-20T14:15:00Z,29.1870,-90.6093,1.53,17.78,1111122 
LUMCON,ioos:station:LUMCON:102:1,2016-08-20T14:30:00Z,29.1870,-90.6093,1.52,17.89,1111122 
LUMCON,ioos:station:LUMCON:102:1,2016-08-20T14:45:00Z,29.1870,-90.6093,1.53,18.09,1111122 
LUMCON,ioos:station:LUMCON:102:1,2016-08-20T15:00:00Z,29.1870,-90.6093,1.55,18.15,1111122 
LUMCON,ioos:station:LUMCON:102:1,2016-08-20T15:15:00Z,29.1870,-90.6093,1.55,18.21,1111122 
LUMCON,ioos:station:LUMCON:102:1,2016-08-20T15:30:00Z,29.1870,-90.6093,1.55,18.34,1111122 
LUMCON,ioos:station:LUMCON:102:1,2016-08-20T15:45:00Z,29.1870,-90.6093,1.54,18.39,1111122 
LUMCON,ioos:station:LUMCON:102:1,2016-08-20T16:00:00Z,29.1870,-90.6093,1.55,18.29,1111122 
LUMCON,ioos:station:LUMCON:102:1,2016-08-20T16:15:00Z,29.1870,-90.6093,1.54,18.04,1111122 
LUMCON,ioos:station:LUMCON:102:1,2016-08-20T16:30:00Z,29.1870,-90.6093,1.56,17.91,1111122 
LUMCON,ioos:station:LUMCON:102:1,2016-08-20T16:45:00Z,29.1870,-90.6093,1.56,17.92,1111122 
LUMCON,ioos:station:LUMCON:102:1,2016-08-20T17:00:00Z,29.1870,-90.6093,1.57,17.97,1111122 
LUMCON,ioos:station:LUMCON:102:1,2016-08-20T17:15:00Z,29.1870,-90.6093,1.58,18.05,1111122 
LUMCON,ioos:station:LUMCON:102:1,2016-08-20T17:30:00Z,29.1870,-90.6093,1.58,18.14,1111122 
LUMCON,ioos:station:LUMCON:102:1,2016-08-20T17:45:00Z,29.1870,-90.6093,1.59,18.15,1111122 
LUMCON,ioos:station:LUMCON:102:1,2016-08-20T18:00:00Z,29.1870,-90.6093,1.6,18.19,1111122 
LUMCON,ioos:station:LUMCON:102:1,2016-08-20T18:15:00Z,29.1870,-90.6093,1.61,18.13,1111122 
LUMCON,ioos:station:LUMCON:102:1,2016-08-20T18:30:00Z,29.1870,-90.6093,1.61,18.07,1111122 
LUMCON,ioos:station:LUMCON:102:1,2016-08-20T18:45:00Z,29.1870,-90.6093,1.6,18.04,1111122 
LUMCON,ioos:station:LUMCON:102:1,2016-08-20T19:00:00Z,29.1870,-90.6093,1.58,18.0,1111122 
LUMCON,ioos:station:LUMCON:102:1,2016-08-20T19:15:00Z,29.1870,-90.6093,1.57,17.96,1111122 
LUMCON,ioos:station:LUMCON:102:1,2016-08-20T19:30:00Z,29.1870,-90.6093,1.57,17.91,1111122 
LUMCON,ioos:station:LUMCON:102:1,2016-08-20T19:45:00Z,29.1870,-90.6093,1.55,17.88,1111122 
LUMCON,ioos:station:LUMCON:102:1,2016-08-20T20:00:00Z,29.1870,-90.6093,1.58,17.86,1111122 
LUMCON,ioos:station:LUMCON:102:1,2016-08-20T20:15:00Z,29.1870,-90.6093,1.57,17.9,1111122 
LUMCON,ioos:station:LUMCON:102:1,2016-08-20T20:30:00Z,29.1870,-90.6093,1.57,18.03,1111122 
LUMCON,ioos:station:LUMCON:102:1,2016-08-20T20:45:00Z,29.1870,-90.6093,1.58,18.11,1111122 
LUMCON,ioos:station:LUMCON:102:1,2016-08-20T21:00:00Z,29.1870,-90.6093,1.59,18.18,1111122 
LUMCON,ioos:station:LUMCON:102:1,2016-08-20T21:15:00Z,29.1870,-90.6093,1.57,18.27,1111122 
LUMCON,ioos:station:LUMCON:102:1,2016-08-20T21:30:00Z,29.1870,-90.6093,1.58,18.39,1111122 
LUMCON,ioos:station:LUMCON:102:1,2016-08-20T21:45:00Z,29.1870,-90.6093,1.55,18.41,1111122 
LUMCON,ioos:station:LUMCON:102:1,2016-08-20T22:00:00Z,29.1870,-90.6093,1.55,18.48,1111122 
LUMCON,ioos:station:LUMCON:102:1,2016-08-20T22:15:00Z,29.1870,-90.6093,1.54,18.5,1111122 
LUMCON,ioos:station:LUMCON:102:1,2016-08-20T22:30:00Z,29.1870,-90.6093,1.53,18.53,1111122 
LUMCON,ioos:station:LUMCON:102:1,2016-08-20T22:45:00Z,29.1870,-90.6093,1.52,18.57,1111122 
LUMCON,ioos:station:LUMCON:102:1,2016-08-20T23:00:00Z,29.1870,-90.6093,1.5,18.59,1111122 
LUMCON,ioos:station:LUMCON:102:1,2016-08-20T23:15:00Z,29.1870,-90.6093,1.48,18.62,1111122 
LUMCON,ioos:station:LUMCON:102:1,2016-08-20T23:30:00Z,29.1870,-90.6093,1.47,18.63,1111122 
LUMCON,ioos:station:LUMCON:102:1,2016-08-20T23:45:00Z,29.1870,-90.6093,1.46,18.64,1111122 
LUMCON,ioos:station:LUMCON:102:1,2016-08-21T00:00:00Z,29.1870,-90.6093,1.46,18.65,1111122 
LUMCON,ioos:station:LUMCON:102:1,2016-08-21T00:15:00Z,29.1870,-90.6093,1.45,18.64,1111122 
LUMCON,ioos:station:LUMCON:102:1,2016-08-21T00:30:00Z,29.1870,-90.6093,1.44,18.64,1111122 
LUMCON,ioos:station:LUMCON:102:1,2016-08-21T00:45:00Z,29.1870,-90.6093,1.43,18.67,1111122 
LUMCON,ioos:station:LUMCON:102:1,2016-08-21T01:00:00Z,29.1870,-90.6093,1.43,18.68,1111122 
LUMCON,ioos:station:LUMCON:102:1,2016-08-21T01:15:00Z,29.1870,-90.6093,1.42,18.68,1111122 
LUMCON,ioos:station:LUMCON:102:1,2016-08-21T01:30:00Z,29.1870,-90.6093,1.41,18.66,1111122 
LUMCON,ioos:station:LUMCON:102:1,2016-08-21T01:45:00Z,29.1870,-90.6093,1.41,18.62,1111122 
LUMCON,ioos:station:LUMCON:102:1,2016-08-21T02:00:00Z,29.1870,-90.6093,1.4,18.61,1111122 
LUMCON,ioos:station:LUMCON:102:1,2016-08-21T02:15:00Z,29.1870,-90.6093,1.4,18.58,1111122 
LUMCON,ioos:station:LUMCON:102:1,2016-08-21T02:30:00Z,29.1870,-90.6093,1.41,18.54,1111122 
LUMCON,ioos:station:LUMCON:102:1,2016-08-21T02:45:00Z,29.1870,-90.6093,1.4,18.46,1111122 
LUMCON,ioos:station:LUMCON:102:1,2016-08-21T03:00:00Z,29.1870,-90.6093,1.41,18.4,1111122 
LUMCON,ioos:station:LUMCON:102:1,2016-08-21T03:15:00Z,29.1870,-90.6093,1.4,18.33,1111122 
LUMCON,ioos:station:LUMCON:102:1,2016-08-21T03:30:00Z,29.1870,-90.6093,1.41,18.3,1111122 
LUMCON,ioos:station:LUMCON:102:1,2016-08-21T03:45:00Z,29.1870,-90.6093,1.4,18.31,1111122 
LUMCON,ioos:station:LUMCON:102:1,2016-08-21T04:00:00Z,29.1870,-90.6093,1.42,18.3,1111122 
LUMCON,ioos:station:LUMCON:102:1,2016-08-21T04:15:00Z,29.1870,-90.6093,1.42,18.29,1111122 
LUMCON,ioos:station:LUMCON:102:1,2016-08-21T04:30:00Z,29.1870,-90.6093,1.42,18.34,1111122 
LUMCON,ioos:station:LUMCON:102:1,2016-08-21T04:45:00Z,29.1870,-90.6093,1.43,18.37,1111122 
LUMCON,ioos:station:LUMCON:102:1,2016-08-21T05:00:00Z,29.1870,-90.6093,1.44,18.36,1111122 
LUMCON,ioos:station:LUMCON:102:1,2016-08-21T05:15:00Z,29.1870,-90.6093,1.44,18.35,1111122 
LUMCON,ioos:station:LUMCON:102:1,2016-08-21T05:30:00Z,29.1870,-90.6093,1.45,18.35,1111122 
LUMCON,ioos:station:LUMCON:102:1,2016-08-21T05:45:00Z,29.1870,-90.6093,1.45,18.34,1111122 
LUMCON,ioos:station:LUMCON:102:1,2016-08-21T06:00:00Z,29.1870,-90.6093,1.46,18.34,1111122 
LUMCON,ioos:station:LUMCON:102:1,2016-08-21T06:15:00Z,29.1870,-90.6093,1.46,18.34,1111122 
LUMCON,ioos:station:LUMCON:102:1,2016-08-21T06:30:00Z,29.1870,-90.6093,1.47,18.33,1111122 
LUMCON,ioos:station:LUMCON:102:1,2016-08-21T06:45:00Z,29.1870,-90.6093,1.47,18.33,1111122 
LUMCON,ioos:station:LUMCON:102:1,2016-08-21T07:00:00Z,29.1870,-90.6093,1.48,18.32,1111122 
LUMCON,ioos:station:LUMCON:102:1,2016-08-21T07:15:00Z,29.1870,-90.6093,1.49,18.32,1111122 
LUMCON,ioos:station:LUMCON:102:1,2016-08-21T07:30:00Z,29.1870,-90.6093,1.49,18.33,1111122 
LUMCON,ioos:station:LUMCON:102:1,2016-08-21T07:45:00Z,29.1870,-90.6093,1.5,18.33,1111122 
LUMCON,ioos:station:LUMCON:102:1,2016-08-21T08:00:00Z,29.1870,-90.6093,1.5,18.33,1111122 
LUMCON,ioos:station:LUMCON:102:1,2016-08-21T08:15:00Z,29.1870,-90.6093,1.5,18.33,1111122 
LUMCON,ioos:station:LUMCON:102:1,2016-08-21T08:30:00Z,29.1870,-90.6093,1.51,18.34,1111122 
LUMCON,ioos:station:LUMCON:102:1,2016-08-21T08:45:00Z,29.1870,-90.6093,1.51,18.35,1111122 
LUMCON,ioos:station:LUMCON:102:1,2016-08-21T09:00:00Z,29.1870,-90.6093,1.51,18.36,1111122 
LUMCON,ioos:station:LUMCON:102:1,2016-08-21T09:15:00Z,29.1870,-90.6093,1.52,18.38,1111122 
LUMCON,ioos:station:LUMCON:102:1,2016-08-21T09:30:00Z,29.1870,-90.6093,1.52,18.39,1111122 
LUMCON,ioos:station:LUMCON:102:1,2016-08-21T09:45:00Z,29.1870,-90.6093,1.53,18.41,1111122 
LUMCON,ioos:station:LUMCON:102:1,2016-08-21T10:00:00Z,29.1870,-90.6093,1.54,18.43,1111122 
LUMCON,ioos:station:LUMCON:102:1,2016-08-21T10:15:00Z,29.1870,-90.6093,1.54,18.44,1111122 
LUMCON,ioos:station:LUMCON:102:1,2016-08-21T10:30:00Z,29.1870,-90.6093,1.54,18.45,1111122 
LUMCON,ioos:station:LUMCON:102:1,2016-08-21T10:45:00Z,29.1870,-90.6093,1.54,18.46,1111122 
LUMCON,ioos:station:LUMCON:102:1,2016-08-21T11:00:00Z,29.1870,-90.6093,1.54,18.31,1111122 
LUMCON,ioos:station:LUMCON:102:1,2016-08-21T11:15:00Z,29.1870,-90.6093,1.53,18.18,1111122 
LUMCON,ioos:station:LUMCON:102:1,2016-08-21T11:30:00Z,29.1870,-90.6093,1.54,18.16,1111122 
LUMCON,ioos:station:LUMCON:102:1,2016-08-21T11:45:00Z,29.1870,-90.6093,1.53,18.07,1111122 
LUMCON,ioos:station:LUMCON:102:1,2016-08-21T12:00:00Z,29.1870,-90.6093,1.52,18.02,1111122 
LUMCON,ioos:station:LUMCON:102:1,2016-08-21T12:15:00Z,29.1870,-90.6093,1.52,18.03,1111122 
LUMCON,ioos:station:LUMCON:102:1,2016-08-21T12:30:00Z,29.1870,-90.6093,1.5,18.05,1111122 
LUMCON,ioos:station:LUMCON:102:1,2016-08-21T12:45:00Z,29.1870,-90.6093,1.5,18.04,1111122 
LUMCON,ioos:station:LUMCON:102:1,2016-08-21T13:00:00Z,29.1870,-90.6093,1.5,18.03,1111122 
LUMCON,ioos:station:LUMCON:102:1,2016-08-21T13:15:00Z,29.1870,-90.6093,1.5,18.05,1111122 
LUMCON,ioos:station:LUMCON:102:1,2016-08-21T13:30:00Z,29.1870,-90.6093,1.5,18.09,1111122 
LUMCON,ioos:station:LUMCON:102:1,2016-08-21T13:45:00Z,29.1870,-90.6093,1.49,18.12,1111122 
LUMCON,ioos:station:LUMCON:102:1,2016-08-21T14:00:00Z,29.1870,-90.6093,1.49,18.14,1111122 
LUMCON,ioos:station:LUMCON:102:1,2016-08-21T14:15:00Z,29.1870,-90.6093,1.5,18.17,1111122 
LUMCON,ioos:station:LUMCON:102:1,2016-08-21T14:30:00Z,29.1870,-90.6093,1.5,18.19,1111122 
LUMCON,ioos:station:LUMCON:102:1,2016-08-21T14:45:00Z,29.1870,-90.6093,1.5,18.22,1111122 
LUMCON,ioos:station:LUMCON:102:1,2016-08-21T15:00:00Z,29.1870,-90.6093,1.5,18.24,1111122 
LUMCON,ioos:station:LUMCON:102:1,2016-08-21T15:15:00Z,29.1870,-90.6093,1.49,18.26,1111122 
LUMCON,ioos:station:LUMCON:102:1,2016-08-21T15:30:00Z,29.1870,-90.6093,1.5,18.28,1111122 
LUMCON,ioos:station:LUMCON:102:1,2016-08-21T15:45:00Z,29.1870,-90.6093,1.49,18.29,1111122 
LUMCON,ioos:station:LUMCON:102:1,2016-08-21T16:00:00Z,29.1870,-90.6093,1.48,18.3,1111122 
LUMCON,ioos:station:LUMCON:102:1,2016-08-21T16:15:00Z,29.1870,-90.6093,1.49,18.3,1111122 
LUMCON,ioos:station:LUMCON:102:1,2016-08-21T16:30:00Z,29.1870,-90.6093,1.5,18.3,1111122 
LUMCON,ioos:station:LUMCON:102:1,2016-08-21T16:45:00Z,29.1870,-90.6093,1.5,18.29,1111122 
LUMCON,ioos:station:LUMCON:102:1,2016-08-21T17:00:00Z,29.1870,-90.6093,1.51,18.26,1111122 
LUMCON,ioos:station:LUMCON:102:1,2016-08-21T17:15:00Z,29.1870,-90.6093,1.5,18.2,1111122 
LUMCON,ioos:station:LUMCON:102:1,2016-08-21T17:30:00Z,29.1870,-90.6093,1.5,18.14,1111122 
LUMCON,ioos:station:LUMCON:102:1,2016-08-21T17:45:00Z,29.1870,-90.6093,1.5,18.1,1111122 
LUMCON,ioos:station:LUMCON:102:1,2016-08-21T18:00:00Z,29.1870,-90.6093,1.51,18.08,1111122 
LUMCON,ioos:station:LUMCON:102:1,2016-08-21T18:15:00Z,29.1870,-90.6093,1.51,18.07,1111122 
LUMCON,ioos:station:LUMCON:102:1,2016-08-21T18:30:00Z,29.1870,-90.6093,1.51,18.06,1111122 
LUMCON,ioos:station:LUMCON:102:1,2016-08-21T18:45:00Z,29.1870,-90.6093,1.51,18.03,1111122 
LUMCON,ioos:station:LUMCON:102:1,2016-08-21T19:00:00Z,29.1870,-90.6093,1.52,17.93,1111122 
LUMCON,ioos:station:LUMCON:102:1,2016-08-21T19:15:00Z,29.1870,-90.6093,1.51,17.88,1111122 
LUMCON,ioos:station:LUMCON:102:1,2016-08-21T19:30:00Z,29.1870,-90.6093,1.52,17.81,1111122 
LUMCON,ioos:station:LUMCON:102:1,2016-08-21T19:45:00Z,29.1870,-90.6093,2.52,17.63,1111122 
LUMCON,ioos:station:LUMCON:102:1,2016-08-21T20:00:00Z,29.1870,-90.6093,2.53,17.71,1111122 
LUMCON,ioos:station:LUMCON:102:1,2016-08-21T20:15:00Z,29.1870,-90.6093,2.54,17.88,1111122 
LUMCON,ioos:station:LUMCON:102:1,2016-08-21T20:30:00Z,29.1870,-90.6093,2.53,17.64,1111122 
LUMCON,ioos:station:LUMCON:102:1,2016-08-21T20:45:00Z,29.1870,-90.6093,2.54,18.01,1111122 
LUMCON,ioos:station:LUMCON:102:1,2016-08-21T21:00:00Z,29.1870,-90.6093,2.54,18.16,1111122 
LUMCON,ioos:station:LUMCON:102:1,2016-08-21T21:15:00Z,29.1870,-90.6093,2.54,18.2,1111122 
LUMCON,ioos:station:LUMCON:102:1,2016-08-21T21:30:00Z,29.1870,-90.6093,2.54,18.25,1111122 
LUMCON,ioos:station:LUMCON:102:1,2016-08-21T21:45:00Z,29.1870,-90.6093,2.54,18.21,1111122 
LUMCON,ioos:station:LUMCON:102:1,2016-08-21T22:00:00Z,29.1870,-90.6093,2.53,18.24,1111122 
LUMCON,ioos:station:LUMCON:102:1,2016-08-21T22:15:00Z,29.1870,-90.6093,2.52,18.25,1111122 
LUMCON,ioos:station:LUMCON:102:1,2016-08-21T22:30:00Z,29.1870,-90.6093,2.52,18.19,1111122 
LUMCON,ioos:station:LUMCON:102:1,2016-08-21T22:45:00Z,29.1870,-90.6093,2.5,18.24,1111122 
LUMCON,ioos:station:LUMCON:102:1,2016-08-21T23:00:00Z,29.1870,-90.6093,2.48,18.21,1111122 
LUMCON,ioos:station:LUMCON:102:1,2016-08-21T23:15:00Z,29.1870,-90.6093,2.49,18.17,1111122 
LUMCON,ioos:station:LUMCON:102:1,2016-08-21T23:30:00Z,29.1870,-90.6093,2.49,18.44,1111122 
LUMCON,ioos:station:LUMCON:102:1,2016-08-21T23:45:00Z,29.1870,-90.6093,2.47,18.61,1111122 
LUMCON,ioos:station:LUMCON:102:1,2016-08-22T00:00:00Z,29.1870,-90.6093,2.44,18.43,1111122 
LUMCON,ioos:station:LUMCON:102:1,2016-08-22T00:15:00Z,29.1870,-90.6093,2.43,18.0,1111122 
LUMCON,ioos:station:LUMCON:102:1,2016-08-22T00:30:00Z,29.1870,-90.6093,2.38,17.97,1111122 
LUMCON,ioos:station:LUMCON:102:1,2016-08-22T00:45:00Z,29.1870,-90.6093,2.35,17.4,1111122 
LUMCON,ioos:station:LUMCON:102:1,2016-08-22T01:00:00Z,29.1870,-90.6093,2.38,18.14,1111122 
LUMCON,ioos:station:LUMCON:102:1,2016-08-22T01:15:00Z,29.1870,-90.6093,2.38,17.97,1111122 
LUMCON,ioos:station:LUMCON:102:1,2016-08-22T01:30:00Z,29.1870,-90.6093,2.39,17.74,1111122 
LUMCON,ioos:station:LUMCON:102:1,2016-08-22T01:45:00Z,29.1870,-90.6093,2.37,18.18,1111122 
LUMCON,ioos:station:LUMCON:102:1,2016-08-22T02:00:00Z,29.1870,-90.6093,2.37,18.17,1111122 
LUMCON,ioos:station:LUMCON:102:1,2016-08-22T02:15:00Z,29.1870,-90.6093,2.38,18.14,1111122 
LUMCON,ioos:station:LUMCON:102:1,2016-08-22T02:30:00Z,29.1870,-90.6093,2.37,18.28,1111122 
LUMCON,ioos:station:LUMCON:102:1,2016-08-22T02:45:00Z,29.1870,-90.6093,2.37,18.07,1111122 
LUMCON,ioos:station:LUMCON:102:1,2016-08-22T03:00:00Z,29.1870,-90.6093,2.38,17.99,1111122 
LUMCON,ioos:station:LUMCON:102:1,2016-08-22T03:15:00Z,29.1870,-90.6093,2.38,17.99,1111122 
LUMCON,ioos:station:LUMCON:102:1,2016-08-22T03:30:00Z,29.1870,-90.6093,2.39,18.15,1111122 
LUMCON,ioos:station:LUMCON:102:1,2016-08-22T03:45:00Z,29.1870,-90.6093,2.39,18.18,1111122 
LUMCON,ioos:station:LUMCON:102:1,2016-08-22T04:00:00Z,29.1870,-90.6093,2.39,18.15,1111122 
LUMCON,ioos:station:LUMCON:102:1,2016-08-22T04:15:00Z,29.1870,-90.6093,2.38,18.11,1111122 
LUMCON,ioos:station:LUMCON:102:1,2016-08-22T04:30:00Z,29.1870,-90.6093,2.38,18.21,1111122 
LUMCON,ioos:station:LUMCON:102:1,2016-08-22T04:45:00Z,29.1870,-90.6093,2.38,18.23,1111122 
LUMCON,ioos:station:LUMCON:102:1,2016-08-22T05:00:00Z,29.1870,-90.6093,2.39,18.23,1111122 
LUMCON,ioos:station:LUMCON:102:1,2016-08-22T05:15:00Z,29.1870,-90.6093,2.41,18.24,1111122 
LUMCON,ioos:station:LUMCON:102:1,2016-08-22T05:30:00Z,29.1870,-90.6093,2.4,18.25,1111122 
LUMCON,ioos:station:LUMCON:102:1,2016-08-22T05:45:00Z,29.1870,-90.6093,2.38,18.28,1111122 
LUMCON,ioos:station:LUMCON:102:1,2016-08-22T06:00:00Z,29.1870,-90.6093,2.4,18.29,1111122 
LUMCON,ioos:station:LUMCON:102:1,2016-08-22T06:15:00Z,29.1870,-90.6093,2.4,18.31,1111122 
LUMCON,ioos:station:LUMCON:102:1,2016-08-22T06:30:00Z,29.1870,-90.6093,2.4,18.3,1111122 
LUMCON,ioos:station:LUMCON:102:1,2016-08-22T06:45:00Z,29.1870,-90.6093,2.4,18.35,1111122 
LUMCON,ioos:station:LUMCON:102:1,2016-08-22T07:00:00Z,29.1870,-90.6093,2.41,18.33,1111122 
LUMCON,ioos:station:LUMCON:102:1,2016-08-22T07:15:00Z,29.1870,-90.6093,2.44,18.49,1111122 
LUMCON,ioos:station:LUMCON:102:1,2016-08-22T07:30:00Z,29.1870,-90.6093,2.43,18.63,1111122 
LUMCON,ioos:station:LUMCON:102:1,2016-08-22T07:45:00Z,29.1870,-90.6093,2.43,18.71,1111122 
LUMCON,ioos:station:LUMCON:102:1,2016-08-22T08:00:00Z,29.1870,-90.6093,2.45,18.84,1111122 
LUMCON,ioos:station:LUMCON:102:1,2016-08-22T08:15:00Z,29.1870,-90.6093,2.46,18.96,1111122 
LUMCON,ioos:station:LUMCON:102:1,2016-08-22T08:30:00Z,29.1870,-90.6093,2.46,18.98,1111122 
LUMCON,ioos:station:LUMCON:102:1,2016-08-22T08:45:00Z,29.1870,-90.6093,2.47,19.01,1111122 
LUMCON,ioos:station:LUMCON:102:1,2016-08-22T09:00:00Z,29.1870,-90.6093,2.47,18.94,1111122 
LUMCON,ioos:station:LUMCON:102:1,2016-08-22T09:15:00Z,29.1870,-90.6093,2.47,19.05,1111122 